Terminal Aerodrome Forecast
Issued by NWS Dallas/Fort Worth, TX

Home | Current Version | Previous Version | Text Only | Print | Product List | Glossary On
Versions: 1 2 3 4 5 6 7 8 9 10 11 12 13 14 15 16 17 18 19 20 21 22 23 24 25 26 27
000
FTUS44 KFWD 292300
TAFDFW
TAF
KDFW 292325Z 3000/3106 12006KT P6SM SCT100 BKN250
     FM301400 16010KT P6SM VCSH SCT080 BKN120
     FM302300 14010KT P6SM VCTS SCT080CB BKN120
     FM310300 13010KT P6SM BKN120=

USA.gov is the U.S. government's official web portal to all federal, state and local government web resources and services.